www.pogodaiklimat.ru

Погода и климат >> Архив погоды >> Иран >> Мараве Таппе


ПОГОДА в Мараве Таппе

  • Прогноз погоды в Мараве Таппе
  • Монитор погоды в Мараве Таппе

АРХИВ ПОГОДЫ в Мараве Таппе

Время (UTC), дата Ветер
(напр.,м/с)
 
Видим.   Явления Облачность Т
(С)
Тd
(С)
f
(%)
Тe
(С)
Тes
(С)
Комфортность P
(гПа)
Po
(гПа)
Тmin
(С)
Tmax
(С)
R
(мм)
R24
(мм)
S
(см)
15 16.07 ЮЗ 3 10 км 3/0
[Ac trans]
+35.8 +22.3 46 +45 +45 опасность
перегрева
1000.6 951.0 +37.4
18 16.07 З 4 10 км 1/0
[Ac trans]
+30.5 +21.8 60 +39 +39 очень
душно
1002.1 952.4
21 16.07 штиль 0 10 км ясно +26.9 +20.2 67 +33 +33 очень
душно
1003.1 953.4
00 17.07 ЮЗ 2 10 км ясно +25.5 +20.0 72 +31 +31 очень
душно
1003.5 953.7
03 17.07 З 2 10 км ясно +26.9 +20.2 67 +33 +36 очень
душно
1004.5 954.7 +25.0
06 17.07 З 3 10 км ясно +30.9 +21.3 57 +39 +52 опасность
солнечного
удара
1005.1 955.2
09 17.07 СЗ 3 10 км ясно +34.6 +22.3 49 +44 +60 опасность
перегрева
1004.0 954.2
12 17.07 СЗ 4 10 км ясно +35.9 +22.8 47 +46 +52 опасность
перегрева
1003.2 953.4
15 17.07 ЮЗ 4 10 км ясно +34.3 +22.3 50 +43 +44 опасность
перегрева
1003.4 953.6 +36.3
18 17.07 Ю 2 10 км ясно +29.2 +22.4 67 +38 +38 очень
душно
1004.6 954.7
21 17.07 СЗ 2 10 км 10/4 1050 м
[Sc As op]
+27.3 +20.4 66 +34 +34 очень
душно
1004.9 955.0
00 18.07 штиль 0 10 км 10/3 1050 м
[Sc As op]
+26.1 +19.7 68 +32 +32 очень
душно
1004.7 954.8
03 18.07 штиль 0 10 км 5/0
[Ac trans]
+27.4 +18.4 58 +32 +35 очень
душно
1005.5 955.5 +25.7
06 18.07 СЗ 2 10 км ясно +30.2 +20.7 57 +37 +53 опасность
солнечного
удара
1005.7 955.6
09 18.07 З 3 10 км ясно +34.1 +21.8 49 +43 +59 опасность
перегрева
1004.6 954.7
12 18.07 З 3 10 км ясно +37.2 +22.1 42 +46 +53 опасность
перегрева
1003.1 953.5
15 18.07 Ю 4 10 км ясно +34.4 +23.1 52 +45 +45 опасность
перегрева
1003.1 953.4 +37.1
18 18.07 Ю 2 10 км ясно +30.5 +22.6 63 +40 +40 очень
душно
1004.3 954.4
21 18.07 СЗ 2 10 км ясно +27.7 +22.6 74 +37 +37 очень
душно
1004.0 954.2
00 19.07 штиль 0 10 км ясно +25.1 +21.2 79 +32 +32 очень
душно
1004.0 954.2
03 19.07 штиль 0 10 км ясно +28.0 +20.8 65 +35 +39 очень
душно
1005.3 955.5 +24.5
06 19.07 СЗ 4 10 км ясно +31.4 +22.7 60 +41 +51 опасность
перегрева
1006.3 956.4
09 19.07 З 5 10 км ясно +35.3 +22.2 47 +44 +55 опасность
перегрева
1006.1 956.3
12 19.07 З 4 10 км 1/1 900 м
[Cu hum]
+36.2 +23.4 48 +47 +52 опасность
перегрева
1006.3 956.4
15 19.07 Ю 7 10 км ясно +32.6 +22.3 55 +42 +42 опасность
перегрева
1007.0 957.0 +36.3
18 19.07 Ю 5 10 км ясно +29.4 +22.3 66 +38 +38 очень
душно
1008.8 958.7
21 19.07 З 2 10 км ясно +27.8 +21.8 70 +36 +36 очень
душно
1009.4 959.4
00 20.07 СЗ 2 10 км 10/1 900 м
[Sc As op]
+26.6 +21.3 73 +34 +34 очень
душно
1009.7 959.7
03 20.07 З 2 10 км 10/3 1050 м
[Sc As op]
+26.2 +21.2 74 +33 +34 очень
душно
1012.1 961.6 +26.1
06 20.07 штиль 0 10 км 9/4 1050 м
[Sc As op]
+29.4 +22.1 65 +38 +42 очень
душно
1013.1 962.6
09 20.07 СЗ 3 10 км 4/4 1050 м
[Cu hum]
+32.7 +21.5 52 +41 +51 опасность
перегрева
1012.2 961.9
12 20.07 ЮЗ 5 10 км 5/5 1050 м
[Cu med, cong]
+33.7 +22.7 53 +44 +46 опасность
перегрева
1011.7 961.4
15 20.07 Ю 6 10 км ясно +31.1 +21.2 56 +39 +39 очень
душно
1012.7 962.1 +35.1
18 20.07 Ю 4 10 км ясно +28.1 +20.6 64 +35 +35 очень
душно
1013.9 963.2
21 20.07 Ю 4 10 км ясно +26.9 +20.0 66 +33 +33 очень
душно
1013.6 963.1
00 21.07 штиль 0 10 км ясно +25.1 +18.5 67 +30 +30 душно 1013.9 963.3
03 21.07 штиль 0 10 км 4/0
[Ac trans]
+27.4 +17.5 55 +32 +34 очень
душно
1014.9 964.2 +24.2
06 21.07 З 2 10 км ясно +29.8 +18.2 50 +35 +50 очень
душно
1015.0 964.2
09 21.07 З 3 10 км ясно +33.7 +18.2 40 +38 +54 опасность
солнечного
удара
1012.7 962.3
12 21.07 С 2 10 км ясно +36.7 +20.0 38 +42 +51 опасность
перегрева
1010.7 960.5
15 21.07 З 3 10 км ясно +35.5 +20.2 41 +42 +42 опасность
перегрева
1010.1 960.0 +36.7
18 21.07 ЮВ 4 10 км ясно +31.3 +19.9 51 +38 +38 очень
душно
1011.0 960.7
21 21.07 штиль 0 10 км ясно +27.4 +19.2 61 +33 +33 очень
душно
1009.7 959.5
00 22.07 штиль 0 10 км ясно +25.8 +18.7 65 +31 +31 очень
душно
1007.6 957.6
03 22.07 ЮВ 3 10 км ясно +34.8 +16.6 34 +38 +40 очень
душно
1006.3 956.9 +25.4
06 22.07 З 2 10 км ясно +35.9 +20.1 40 +42 +57 опасность
перегрева
1006.1 956.6
09 22.07 З 2 10 км ясно +41.9 +19.6 28 +47 +66 опасность
перегрева
1004.2 954.9
12 22.07 ЮЗ 6 10 км 1/1 900 м
[Cu hum]
+41.9 +22.2 33 +50 +53 опасность
перегрева
1002.7 953.4
15 22.07 ЮЗ 5 10 км 3/0
[Ci sp]
+36.4 +21.7 43 +44 +45 опасность
перегрева
1003.4 954.4 +44.4
18 22.07 З 3 10 км ясно +30.6 +22.2 61 +40 +40 очень
душно
1005.7 956.2
21 22.07 штиль 0 10 км ясно +27.8 +21.8 70 +36 +36 очень
душно
1005.4 956.2
00 23.07 Ю 4 10 км ясно +26.2 +21.2 74 +33 +33 очень
душно
1005.8 956.4
03 23.07 ЮЗ 3 10 км 6/1 1050 м
[Sc Ac As]
+27.4 +19.9 64 +34 +35 очень
душно
1008.3 958.4 +26.1
06 23.07 ЮЗ 5 10 км 4/4 900 м
[Cu med, cong]
+28.9 +22.1 67 +38 +42 очень
душно
1009.4 959.2
09 23.07 ЮЗ 3 10 км 6/6 900 м
[Cu hum]
+33.7 +21.8 50 +42 +49 опасность
перегрева
1008.1 958.1
12 23.07 ЮЗ 4 10 км 5/5 900 м
[Cu hum]
+34.4 +21.4 47 +42 +45 опасность
перегрева
1007.0 956.9

 

Местоположение метеостанции Мараве Таппе (Иран): широта 37.90 долгота 55.95 высота над уровнем моря 460 м.

В архиве по умолчанию представлена погода в Мараве Таппе за последнюю неделю. Архивные данные за месяц целиком и за предыдущие месяцы, начиная с января 2011 года, Вы можете получить, выбрав интересующий диапазон дат из раскрывающегося списка и нажав кнопку "Ввод!".


*Определитесь, кто Вы:
робот инопланетянин человек

Внимание! Время в таблицах - всемирное. Для получения местного времени необходимо прибавить поправку, которая равна 3.5 ч.

Смотрите также архив погоды в соседних городах и на ближайших метеорологических станциях:

Погода в Гаррыгале (Балканский велаят, Туркменистан) (66 км)
Погода в Unknown (Туркменистан) (93 км)
Погода в Гызылетреке (Балканский велаят, Туркменистан) (107 км)
Погода в Сердаре (Балканский велаят, Туркменистан) (124 км)
Погода в Боджнурде (Иран) (131 км)
Погода в Бахарлы (Ахалский велаят, Туркменистан) (141 км)
Погода в Газаджаке (Лебапский велаят, Туркменистан) (155 км)
Погода в Эсенгулы (Балканский велаят, Туркменистан) (181 км)
Погода в Шахруде (Иран) (187 км)
Погода в Горгане (Иран) (189 км)

Пояснения к столбцам:

Ветер - указаны скорость ветра в м/с - средняя за 10 мин, порывы в срок и между сроками (в фигурных скобках) и направление, откуда дует ветер: С - северный, СВ - северо-восточный, В - восточный, ЮВ - юго-восточный, Ю - южный, ЮЗ - юго-западный, З - западный, СЗ - северо-западный.
Видимость - горизонтальная дальность видимости в метрах или километрах. При видимости от 1 до 10 км при отсутствии осадков обычно наблюдается дымка, при ухудшении видимости до 1 км и менее - туман. В сухую погоду видимость может ухудшаться дымом, пылью или мглою.
Явления - указаны атмосферные явления, наблюдавшиеся в срок или в последний час перед сроком; фигурными скобками обозначены явления, наблюдавшиеся между сроками (за 1-3 часа до срока); квадратными скобками обозначены град или гололедные отложения с указанием их диаметра в мм.
Облачность - указаны через наклонную черту общая и нижняя облачность в баллах и высота нижней границы облаков в метрах; квадратными скобками обозначены формы облаков: Ci - перистые, Cs - перисто-слоистые, Cc - перисто-кучевые, Ac - высококучевые, As - высокослоистые, Sc - слоисто-кучевые, Ns - слоисто-дождевые, Cu - кучевые, Cb - кучево-дождевые. Подробнее классификацию облаков см. в Атласе облаков (PDF).
T - Температура воздуха - температура, измеренная на высоте 2 м над землей.
Td - Температура точки росы - температура, при понижении до которой содержащийся в воздухе водяной пар достигнет насыщения.
f - Относительная влажность воздуха - влажноcть воздуха, измеренная на высоте 2 м над землей.
Te - Эффективная температура - температура, которую ощущает одетый по сезону человек в тени. Характеристика душности погоды. При расчете учитывается влияние влажности воздуха и скорости ветра на теплоощущения человека.
Tes - Эффективная температура на солнце - температура, которую ощущает человек, с поправкой на солнечный нагрев. Характеристика знойности погоды. Зависит от высоты солнца над горизонтом, облачности и скорости ветра. Ночью, в пасмурную погоду, а также при ветре 12 м/с и более поправка равна нулю.
P - Атмосферное давление - приведенное к уровню моря атмосферное давление.
Po - Атмосферное давление - измеренное на уровне метеостанции атмосферное давление.
Tmin - Минимальная температура - минимум температуры воздуха на высоте 2 м над землей.
Tmax - Максимальная температура - максимум температуры воздуха на высоте 2 м над землей.
R - Количество осадков - Количество выпавших осадков за период времени, мм. При наведении курсора мыши на число - период времени, за который выпало указанное количество осадков.
R24 - Количество осадков - Количество выпавших осадков за 24 часа, мм.
S - Снежный покров - Высота снежного покрова, см. При наведении курсора мыши на число - состояние снежного покрова и степень покрытия местности в баллах.